GEESAT 2-05

Satellite information

Favourite Embed

Satellite Type and Status

PAYLOADIN ORBIT

Key statistics

Satellite GEESAT 2-05 at a glance.

Uptime

461

Days in orbit

Revolutions

≈ 14.9

Per day

Orbit

LEO

Low Earth Orbit

Inclination

50.0

Latest

Satellite identification and parameters

Extended collection of information and parameters for GEESAT 2-05.

Object identification

Identified? True

Debris? False

Object name: GEESAT 2-05

International designator: 2024-023E

Object number (NORAD): 58909

Object ID (CCSDS): 58909

Country: PEOPLES REPUBLIC OF CHINA (PRC)

Current information (Y/N): Y

RCS size: MEDIUM

Orbital parameters

Period: 96.44 minutes

Inclination: 50.0038 deg

SMA: 6966.232 km

Apoapsis: 592.946 km

Periapsis: 583.248 km

RAAN: 81.3698 deg

Eccentricy: 0.0006961

Argument of periapsis: 36.4228 deg

Mean anomaly: 323.7187 deg

Mean motion: 14.93158425 rev/day

Mean motion (dot): 0.00003886 rev/day2

B* drag term: 0.00039124 1/REarth

Two-line elements (TLE)

Creation date: May 8, 2025, 3:01 a.m.

Reference frame: TEME

Reference center: EARTH

Epoch: May 7, 2025, 10:40 p.m. UTC

TLE line 0: 0 GEESAT 2-05

TLE line 1: 1 58909U 24023E 25127.94488739 .00003886 00000-0 39124-3 0 9998

TLE line 2: 2 58909 50.0038 81.3698 0006961 36.4228 323.7187 14.93158425 68626

Live tracking on map

Real-time ground track for satellite GEESAT 2-05.

In-orbit conjunctions

There are no conjunctions computed for GEESAT 2-05, at the moment. Check back to stay up to date, as we update our databases every day.

Go to all conjunctions

Associated space launch

11 LEO communications satellites for Chinese car manufacturer Geely Automotive for testing autonomous driving/inter-vehicle communication services. They also carry payloads for ocean observation.

GEESAT 2-05 was lifted into orbit during the mission ‘Long March 2C | Geely Constellation Group 02’, on board a Long March 2 space rocket.

The launch took place on Feb. 2, 2024, 11:37 p.m. from Launch Complex 3 (LC-3/LA-1).

For more information about the launch, click the button.

Launch to space Long March 2C | Geely Constellation Group 02
Long March 2C | Geely Constellation Group 02

Agency: N/A

Status: Launch Successful

Launch date: Feb. 2, 2024, 11:37 p.m. UTC

Rocket: Long March 2

Launch pad: Launch Complex 3 (LC-3/LA-1)

Location: Xichang Satellite Launch Center, People's Republic of China

...

Latest news about this satellite

News about space launch
China launches 20 satellites on separate inland and sea rocket launches

A pair of Chinese rockets launched 11 mobility services satellites for an automaker and nine further, diverse satellites into orbit late Friday.


Newsletter sign-up

Weekly statistics, charts and insights to help you stay on top of the space industry.